Temperature
8 8 9 9 10 10 10 10 11 11 11 10 11 11 10 10 10 11 11 11 11 11 11 11 11 11 11 10 10 10 10 10 9 9 9 9 9 9 9 9 9 9 9
7 7 8 8 9 9 10 10 10 10 10 10 10 10 10 10 10 10 10 10 11 11 10 10 10 10 10 10 10 10 10 9 9 9 9 9 9 9 9 9 9 9 9
6 6 6 7 8 8 9 9 10 10 10 10 10 10 10 10 10 10 10 10 10 10 10 10 10 10 10 10 10 10 9 9 9 9 9 9 9 8 8 9 9 8 9
5 5 5 6 7 7 8 9 9 9 9 9 9 9 9 9 10 10 10 10 10 10 10 10 10 10 10 10 10 9 9 9 9 9 9 9 8 8 8 8 8 8 8
3 4 4 5 6 6 7 8 8 8 9 9 9 9 9 9 9 9 9 9 9 9 10 10 9 10 9 9 9 9 9 9 9 9 9 8 8 8 8 8 8 8 8
2 3 3 4 5 6 7 7 8 8 8 8 8 8 9 9 9 9 9 9 9 9 9 9 9 9 9 9 9 9 9 9 8 8 8 8 8 8 8 8 7 7 8
2 2 3 3 4 5 6 6 7 7 8 8 8 8 8 8 8 8 8 9 9 9 9 9 9 9 9 9 9 9 9 8 8 8 8 8 8 8 8 8 7 7 7
1 1 1 2 2 3 5 5 6 7 7 7 7 8 8 8 8 8 8 8 8 9 9 9 9 9 9 9 9 8 8 8 8 8 8 8 8 8 8 7 7 7 7
-0 0 1 1 2 3 4 5 5 6 6 6 7 7 7 7 7 7 7 8 8 8 8 8 8 8 8 8 8 8 8 8 8 8 8 8 7 7 7 7 7 7 6
-1 -1 -0 0 1 2 3 3 4 5 5 6 6 6 7 7 7 7 7 7 7 8 8 8 8 8 8 8 8 8 8 8 8 8 7 7 7 7 7 7 7 7 6
-2 -2 -1 -1 0 1 2 3 3 4 4 5 5 6 6 6 6 7 7 7 7 7 7 7 7 7 8 8 7 7 7 7 7 7 7 7 7 7 7 7 6 6 6
-3 -2 -2 -1 -1 -0 1 2 2 3 4 4 5 5 5 5 6 6 6 6 7 7 7 7 7 7 7 7 7 7 7 7 7 7 7 7 7 7 6 6 6 6 6
-3 -3 -3 -2 -2 -1 -0 1 1 2 3 3 4 4 4 5 5 5 6 6 6 6 6 6 6 6 6 7 7 6 6 6 6 6 6 7 6 6 6 6 6 6 6
-4 -4 -3 -3 -2 -2 -1 -0 1 1 2 3 3 4 4 4 4 5 5 5 6 6 6 6 6 6 6 6 6 6 6 6 6 6 6 6 6 6 6 6 6 5 5
-5 -4 -4 -4 -3 -3 -2 -1 -0 0 1 2 2 3 3 3 4 4 4 5 5 5 5 5 5 5 5 5 5 6 6 6 6 6 6 5 6 5 5 5 5 5 5
-5 -5 -5 -4 -4 -3 -3 -2 -1 -0 0 1 2 2 3 3 3 3 3 4 4 4 5 5 5 5 5 5 5 5 5 5 5 5 5 5 5 5 5 5 5 5 4
-6 -6 -5 -5 -5 -4 -4 -3 -2 -1 -0 0 1 1 2 2 2 3 3 3 3 4 4 4 4 4 4 5 5 4 4 4 4 4 4 4 4 4 4 4 4 4 4
-7 -6 -6 -6 -5 -5 -4 -3 -3 -2 -1 -0 0 1 1 1 2 2 2 2 2 3 3 3 3 4 4 4 4 4 4 4 4 4 4 4 4 4 4 4 4 3 3
-7 -7 -7 -6 -6 -5 -5 -4 -3 -2 -2 -1 -1 -0 0 1 1 1 1 2 2 2 2 2 2 3 3 3 3 3 3 3 3 3 3 3 3 3 3 3 3 3 3
-7 -7 -7 -6 -6 -6 -5 -4 -4 -3 -3 -2 -1 -1 -1 -0 0 0 1 1 1 1 1 2 2 2 2 2 3 3 2 2 3 3 3 3 3 3 3 2 2 2 2
-8 -7 -7 -7 -7 -6 -6 -5 -5 -4 -3 -3 -2 -2 -1 -1 -1 -0 -0 0 0 1 1 1 1 1 1 2 2 2 2 2 2 2 2 2 2 2 2 2 2 2 2
-8 -8 -7 -7 -7 -6 -6 -6 -5 -5 -4 -3 -3 -2 -2 -2 -1 -1 -1 -1 -0 -0 -0 0 0 0 1 1 1 1 1 1 1 1 1 1 1 1 1 1 1 1 1
-8 -8 -8 -8 -7 -7 -7 -6 -6 -5 -5 -4 -4 -3 -3 -3 -2 -2 -2 -1 -1 -1 -1 -1 -1 -0 -0 -0 0 0 0 0 0 0 0 0 0 0 0 0 0 0 0
-9 -8 -8 -8 -8 -7 -7 -7 -6 -6 -6 -5 -5 -4 -4 -3 -3 -3 -2 -2 -2 -2 -2 -2 -1 -1 -1 -1 -1 -1 -1 -1 -1 -0 -0 -0 -0 -0 -1 -1 -1 -1 -1
-9 -9 -9 -8 -8 -8 -7 -7 -7 -7 -6 -6 -5 -5 -5 -4 -4 -4 -3 -3 -2 -2 -2 -2 -2 -2 -2 -2 -1 -2 -1 -1 -1 -1 -1 -1 -1 -1 -1 -1 -1 -2 -2
-9 -9 -9 -9 -8 -8 -8 -7 -7 -7 -7 -6 -6 -6 -5 -5 -5 -4 -4 -3 -3 -3 -3 -3 -3 -3 -2 -2 -2 -2 -2 -2 -2 -2 -2 -2 -2 -2 -2 -2 -2 -2 -2
Wind_Speed
4 3 3 3 4 5 6 7 8 8 7 6 6 6 6 6 6 6 8 9 9 9 8 6 8 8 7 8 8 7 7 5 5 4 2 1 1 1 1 2 2 2 1
4 3 2 2 3 4 5 6 7 8 8 7 7 6 7 5 5 6 7 9 9 10 8 8 7 8 7 8 9 8 6 4 5 4 3 2 3 2 2 2 2 2 2
4 4 3 3 3 4 5 5 7 7 8 8 6 5 5 4 5 6 6 7 9 9 9 8 7 8 7 8 9 9 8 6 5 4 3 3 3 2 2 3 3 3 2
5 4 3 3 3 3 3 4 5 6 7 8 8 9 8 7 7 7 6 7 9 9 9 9 8 7 7 8 8 8 7 8 6 5 3 2 1 2 2 3 3 3 3
5 5 4 4 3 2 2 3 4 5 5 7 9 10 9 8 6 7 8 7 7 8 8 9 8 8 7 7 8 8 8 7 7 6 4 3 2 3 3 3 3 3 3
6 6 5 4 3 2 1 2 3 4 5 6 7 9 10 9 9 8 8 7 6 6 8 8 8 8 7 8 8 8 9 8 8 7 6 5 4 5 4 4 3 3 3
7 7 6 6 5 4 2 2 2 3 4 5 6 7 8 9 10 9 8 8 6 6 8 8 8 7 7 8 7 8 8 8 8 8 7 6 6 4 4 4 3 3 2
8 7 7 6 5 5 4 2 2 2 3 4 5 5 6 6 6 8 7 8 7 7 9 9 9 9 8 8 8 7 7 7 7 8 7 6 5 5 4 4 3 3 3
8 8 7 7 6 5 5 4 2 2 2 3 3 4 5 6 6 6 7 6 6 6 9 9 9 9 8 8 8 7 7 7 7 7 7 6 5 5 5 4 5 4 4
9 8 8 7 6 5 5 5 3 2 2 2 3 2 3 5 5 6 7 6 7 7 8 9 9 8 8 9 8 7 7 7 7 6 7 7 5 5 5 5 5 5 5
9 8 8 8 7 7 6 5 5 3 2 2 2 2 2 3 5 6 6 6 6 7 7 8 9 8 8 9 8 8 8 8 7 7 7 7 6 5 5 5 5 5 5
9 9 8 8 8 8 7 6 6 4 3 2 2 2 2 3 4 5 5 5 6 6 7 7 8 8 8 8 9 9 8 9 9 8 8 8 6 7 5 5 6 6 6
10 10 10 9 9 9 8 7 7 6 4 3 1 2 2 3 3 4 5 5 5 6 6 7 7 8 8 8 8 8 8 8 8 8 8 8 8 8 6 6 6 5 4
10 10 10 10 10 9 9 8 7 7 5 4 2 1 2 3 3 3 4 4 5 6 6 6 7 7 7 7 7 7 8 8 7 7 8 8 8 8 7 6 7 5 5
11 11 11 11 11 10 10 9 8 8 6 4 3 2 2 2 2 2 3 3 4 5 5 5 5 6 5 5 6 6 7 7 7 6 6 7 7 7 6 6 6 6 5
13 12 12 12 11 11 10 10 9 8 7 5 3 3 2 1 1 1 2 3 3 4 5 5 5 5 5 5 6 6 6 6 7 6 6 5 6 6 7 6 7 7 7
13 13 12 11 11 11 10 10 9 8 7 5 4 3 2 1 1 1 2 3 3 4 4 5 5 6 5 6 7 6 6 6 6 6 5 4 5 6 6 6 6 6 6
14 14 12 12 11 10 10 9 9 8 7 6 4 3 2 2 1 1 1 2 2 3 4 4 5 5 5 7 7 7 6 5 5 6 6 6 5 5 5 5 5 5 5
12 12 12 11 11 10 10 9 8 8 7 7 6 4 3 2 2 2 2 2 2 2 3 3 4 5 5 7 7 7 5 4 5 5 5 5 5 6 6 5 5 4 3
12 12 11 11 10 10 9 8 8 8 8 8 7 5 4 3 2 2 2 2 2 2 2 3 3 4 4 6 7 7 4 5 4 4 4 5 5 6 6 6 5 5 4
12 12 11 10 10 10 9 8 8 9 9 9 7 6 4 3 3 2 2 2 2 2 2 2 2 3 4 5 7 7 5 5 4 4 4 4 5 6 6 5 4 5 4
13 13 11 10 10 10 9 9 9 10 9 8 6 5 4 4 2 2 2 2 2 2 2 2 2 1 2 3 5 6 5 4 4 4 4 3 6 6 6 4 4 4 3
12 11 11 11 10 10 9 9 10 10 9 7 6 5 4 3 2 2 2 1 2 2 2 2 2 2 1 2 3 4 4 4 3 2 3 4 5 5 4 5 5 4 3
11 11 11 11 11 11 10 9 9 9 8 6 6 5 4 3 2 2 2 1 1 2 2 2 2 2 1 1 2 2 2 3 2 2 3 4 4 3 3 4 3 2 3
10 10 10 10 11 11 10 9 9 8 7 6 5 5 4 3 2 2 2 2 2 2 2 2 2 2 2 2 2 2 2 2 2 3 2 2 2 2 2 2 2 2 2
10 10 10 10 11 11 10 9 9 8 7 5 5 4 4 3 2 2 2 3 2 3 3 2 2 1 1 2 3 3 3 3 4 3 3 3 3 3 3 3 2 2 2
Wind_Direction
276 274 255 240 222 211 206 203 197 189 183 182 182 182 183 183 182 184 184 184 182 181 183 182 178 180 181 180 175 167 165 161 156 150 146 154 175 194 195 202 202 181 184
303 295 271 237 223 215 211 205 202 196 191 192 191 192 184 187 185 182 186 186 183 183 184 182 181 182 181 180 178 175 173 169 181 180 175 193 199 200 209 214 224 221 208
300 300 282 254 232 223 218 212 207 200 197 191 184 175 174 176 183 186 188 191 188 185 184 184 182 183 183 183 184 185 186 179 184 201 202 202 210 185 188 208 217 220 225
321 315 306 281 252 240 226 216 209 201 196 190 186 184 188 190 193 188 187 187 188 186 183 184 185 183 186 186 187 190 193 187 184 190 222 246 213 204 192 194 209 224 236
332 328 323 307 290 269 237 218 207 200 195 193 192 193 196 195 187 184 185 186 187 187 185 185 184 183 187 189 188 191 196 197 195 190 186 189 199 221 222 220 211 220 231
337 337 340 339 334 328 294 234 207 204 200 194 197 198 197 191 184 184 186 188 187 188 188 187 186 186 187 188 190 194 199 201 201 199 199 200 203 205 213 226 226 237 237
348 348 349 348 346 345 331 280 229 214 207 201 205 206 201 195 191 188 191 190 189 191 191 188 189 189 190 190 190 194 201 204 202 203 208 213 220 214 215 221 229 245 252
354 350 346 343 343 343 341 328 269 234 215 210 212 211 204 199 197 195 193 195 196 196 193 192 192 191 189 187 190 195 199 203 206 208 209 210 213 209 213 217 219 235 244
354 352 348 345 344 344 343 338 317 280 226 212 210 209 206 202 199 200 199 198 198 194 193 193 194 192 189 188 188 195 196 198 206 209 209 212 211 210 215 216 219 226 243
353 351 350 347 346 347 345 344 336 306 272 230 216 215 213 208 200 198 201 199 198 194 192 192 193 192 191 191 192 194 194 196 202 205 207 209 210 208 208 211 218 226 241
351 348 348 349 350 354 356 354 348 341 315 265 231 217 215 213 203 201 201 199 196 193 194 194 193 192 193 193 194 197 194 198 201 202 207 210 207 207 208 210 216 221 227
355 354 354 356 356 355 355 354 350 344 333 299 252 229 215 210 206 201 202 197 196 195 195 193 193 193 195 194 195 197 198 201 203 204 205 209 206 210 211 212 218 222 223
356 358 359 359 355 352 350 349 347 342 335 327 285 234 220 212 211 206 200 196 196 195 194 192 194 195 195 195 199 201 202 205 207 207 207 208 206 211 211 212 218 222 221
356 356 354 354 353 350 349 345 341 340 336 334 318 267 240 225 220 214 202 197 194 192 193 195 196 195 193 195 197 200 202 203 206 211 211 210 210 213 211 213 216 215 215
354 352 349 347 347 347 347 346 342 339 333 325 316 296 278 247 226 218 206 197 192 192 191 192 193 193 193 194 195 198 202 202 203 207 212 214 212 213 212 209 210 207 212
347 344 343 344 344 343 341 340 340 336 328 317 316 313 302 275 242 229 205 194 190 190 188 190 190 193 199 188 191 198 200 203 203 205 208 209 207 209 211 212 212 209 211
342 339 338 338 336 336 335 334 332 330 326 323 317 317 310 291 278 279 211 199 198 192 189 191 194 200 200 186 188 196 199 200 202 203 203 204 206 205 209 206 206 215 223
338 336 335 333 331 331 332 330 329 329 332 332 326 322 317 301 287 283 234 216 212 202 199 197 199 201 199 190 189 189 200 205 205 205 204 203 205 205 202 202 208 219 227
331 330 329 328 328 332 332 332 333 334 335 333 329 328 318 296 280 280 266 235 225 215 212 207 203 202 201 191 188 187 195 199 205 207 206 204 205 194 189 195 204 217 232
332 331 330 330 333 334 334 336 335 335 333 328 323 321 318 296 279 278 278 252 230 216 207 207 208 207 206 189 187 190 192 195 201 202 203 206 206 191 189 198 204 216 224
332 333 331 333 334 334 335 336 336 333 326 322 321 319 316 306 289 287 285 254 223 207 200 195 201 205 203 193 192 194 196 195 196 201 203 203 193 190 192 201 210 209 213
332 333 333 333 335 337 336 335 333 327 323 321 321 318 316 312 305 299 290 255 207 190 195 191 186 203 200 194 195 198 201 195 198 205 204 196 183 187 191 199 192 188 200
329 331 331 330 334 337 336 331 328 326 324 325 325 320 317 314 312 302 290 259 217 197 199 202 200 200 203 189 181 190 190 192 202 202 186 175 172 181 190 185 184 196 210
327 328 329 329 331 333 332 327 325 324 324 324 324 321 320 322 327 318 299 277 247 218 207 211 213 210 206 197 187 190 179 168 163 162 155 151 154 169 175 179 193 215 216
323 325 326 325 325 327 329 331 330 329 327 324 321 321 321 325 340 341 325 296 288 271 253 235 222 217 226 225 224 212 199 195 178 160 160 165 168 173 180 189 194 202 212
322 324 324 324 325 326 328 332 332 330 328 324 325 323 322 323 323 326 343 1 335 341 326 309 279 283 276 221 213 203 186 178 174 168 177 179 184 192 198 203 209 213 220
Height
1484 1484 1485 1486 1488 1490 1492 1495 1498 1500 1503 1505 1507 1510 1513 1515 1518 1521 1523 1526 1528 1530 1533 1535 1537 1539 1542 1544 1546 1548 1551 1552 1554 1557 1558 1560 1560 1561 1562 1562 1563 1563 1563
1481 1481 1482 1483 1484 1486 1489 1491 1494 1497 1499 1502 1504 1507 1510 1512 1515 1517 1520 1522 1525 1527 1530 1532 1535 1537 1539 1541 1543 1546 1548 1550 1552 1554 1557 1559 1560 1559 1560 1560 1561 1561 1562
1480 1480 1480 1481 1482 1483 1485 1488 1490 1493 1496 1498 1501 1504 1506 1509 1512 1514 1516 1519 1521 1524 1527 1529 1532 1534 1536 1538 1540 1543 1545 1547 1549 1552 1554 1556 1557 1557 1558 1558 1558 1559 1559
1479 1478 1478 1479 1479 1481 1482 1484 1487 1489 1492 1495 1497 1499 1502 1504 1507 1510 1513 1515 1518 1521 1523 1526 1528 1531 1533 1535 1538 1540 1542 1545 1546 1549 1551 1553 1554 1555 1556 1556 1556 1557 1557
1478 1477 1477 1477 1477 1479 1480 1481 1484 1486 1488 1491 1493 1496 1499 1502 1505 1507 1510 1512 1515 1517 1520 1522 1525 1527 1530 1532 1535 1537 1539 1541 1543 1545 1547 1549 1550 1552 1553 1554 1554 1555 1555
1477 1476 1475 1475 1475 1476 1477 1479 1480 1482 1484 1487 1490 1492 1495 1498 1501 1503 1506 1508 1511 1513 1516 1519 1521 1524 1526 1529 1531 1534 1536 1538 1540 1542 1544 1546 1547 1549 1550 1551 1551 1552 1553
1476 1475 1474 1473 1473 1473 1474 1476 1477 1479 1481 1483 1486 1489 1491 1494 1497 1499 1502 1505 1507 1509 1512 1515 1517 1520 1523 1525 1528 1530 1532 1535 1537 1538 1540 1542 1544 1546 1547 1548 1549 1549 1550
1476 1475 1474 1473 1472 1472 1472 1473 1474 1476 1478 1480 1482 1485 1488 1490 1493 1496 1499 1501 1503 1506 1508 1511 1514 1516 1519 1521 1524 1526 1528 1531 1533 1535 1537 1538 1540 1542 1544 1545 1546 1547 1547
1476 1474 1473 1472 1471 1471 1471 1471 1472 1473 1475 1477 1479 1481 1484 1486 1489 1492 1495 1498 1500 1502 1504 1507 1509 1512 1515 1517 1520 1522 1524 1527 1529 1531 1533 1535 1536 1538 1540 1541 1543 1544 1544
1476 1474 1473 1471 1470 1470 1469 1470 1470 1471 1473 1474 1476 1478 1480 1483 1486 1488 1491 1494 1496 1498 1500 1503 1505 1508 1510 1513 1515 1518 1520 1522 1524 1526 1529 1530 1532 1534 1535 1537 1539 1540 1541
1477 1475 1473 1471 1470 1469 1468 1468 1468 1469 1470 1472 1473 1475 1477 1480 1482 1485 1487 1490 1492 1494 1496 1499 1501 1503 1506 1508 1511 1513 1516 1518 1520 1522 1524 1526 1528 1529 1531 1532 1534 1535 1536
1478 1476 1473 1471 1469 1468 1467 1466 1466 1467 1467 1469 1471 1472 1474 1476 1479 1481 1483 1486 1488 1490 1492 1495 1497 1499 1502 1504 1507 1509 1511 1513 1515 1517 1519 1521 1523 1525 1526 1527 1529 1530 1531
1479 1476 1473 1471 1469 1467 1466 1465 1464 1465 1465 1466 1468 1469 1471 1473 1475 1477 1479 1481 1484 1486 1488 1490 1492 1495 1497 1499 1502 1504 1506 1508 1510 1512 1514 1516 1518 1519 1521 1522 1524 1525 1526
1480 1477 1474 1471 1469 1467 1465 1464 1463 1463 1463 1464 1465 1466 1468 1470 1471 1473 1475 1477 1479 1481 1484 1486 1488 1490 1492 1495 1497 1500 1502 1504 1506 1508 1509 1511 1513 1514 1516 1517 1519 1520 1521
1480 1477 1475 1472 1469 1466 1464 1463 1461 1461 1461 1462 1462 1463 1465 1466 1468 1469 1471 1473 1475 1477 1480 1482 1484 1486 1488 1490 1493 1495 1497 1499 1501 1503 1505 1506 1508 1510 1511 1512 1514 1515 1516
1481 1478 1475 1472 1469 1466 1463 1461 1460 1459 1459 1459 1459 1460 1462 1463 1464 1466 1468 1470 1471 1473 1476 1477 1479 1482 1484 1486 1489 1491 1493 1495 1496 1498 1500 1502 1503 1505 1506 1508 1509 1511 1511
1482 1478 1475 1472 1469 1466 1463 1461 1459 1458 1457 1457 1457 1458 1459 1460 1461 1463 1464 1466 1468 1469 1471 1473 1475 1477 1479 1482 1484 1486 1489 1490 1492 1493 1495 1497 1498 1500 1501 1503 1504 1505 1506
1482 1478 1475 1471 1468 1466 1463 1460 1458 1457 1455 1455 1455 1456 1456 1457 1458 1460 1461 1463 1464 1466 1467 1469 1471 1473 1475 1477 1480 1482 1484 1486 1488 1489 1491 1492 1494 1495 1497 1498 1498 1500 1501
1483 1479 1475 1471 1468 1465 1462 1459 1457 1455 1454 1453 1453 1453 1454 1454 1456 1457 1458 1459 1461 1462 1464 1465 1467 1469 1471 1473 1475 1477 1479 1481 1483 1485 1487 1488 1489 1491 1492 1493 1494 1494 1495
1482 1478 1474 1470 1467 1463 1460 1458 1455 1454 1452 1451 1451 1451 1451 1452 1453 1454 1455 1456 1457 1459 1460 1462 1464 1465 1467 1469 1471 1473 1475 1476 1478 1480 1482 1483 1485 1486 1487 1488 1489 1490 1491
1481 1477 1473 1469 1466 1462 1459 1457 1454 1452 1451 1450 1449 1449 1449 1449 1450 1451 1452 1453 1454 1455 1457 1458 1460 1462 1464 1466 1467 1469 1471 1472 1474 1475 1477 1478 1480 1482 1483 1484 1485 1485 1486
1480 1476 1472 1468 1464 1461 1458 1455 1453 1451 1450 1448 1447 1447 1446 1447 1447 1448 1449 1450 1451 1452 1453 1455 1456 1458 1460 1462 1463 1465 1467 1468 1470 1471 1473 1474 1476 1477 1479 1480 1480 1481 1482
1479 1475 1471 1467 1464 1460 1457 1454 1452 1450 1447 1445 1445 1444 1444 1444 1444 1445 1446 1447 1448 1449 1450 1452 1453 1455 1456 1458 1460 1461 1463 1464 1466 1467 1469 1470 1472 1473 1474 1475 1476 1477 1478
1478 1475 1471 1467 1463 1459 1456 1453 1450 1448 1445 1444 1443 1442 1442 1442 1442 1442 1443 1444 1445 1446 1447 1448 1450 1451 1453 1454 1456 1457 1459 1460 1462 1463 1465 1466 1468 1469 1470 1471 1472 1473 1473
1477 1474 1470 1466 1462 1458 1455 1452 1449 1446 1444 1442 1441 1440 1440 1439 1439 1440 1441 1441 1442 1443 1444 1446 1447 1448 1450 1451 1452 1453 1455 1457 1458 1459 1461 1462 1464 1465 1466 1467 1467 1468 1469
1476 1472 1469 1465 1461 1457 1454 1451 1448 1446 1443 1441 1440 1439 1438 1438 1438 1438 1439 1439 1440 1441 1442 1443 1445 1446 1447 1448 1449 1451 1452 1453 1455 1456 1457 1458 1460 1461 1462 1463 1463 1464 1465